QPF
0.00 0.00 0.00 0.00 0.00 0.00 0.00 0.00 0.00 0.00 0.00 0.00 0.00 0.00 0.00 0.00 0.00 0.00 0.00 0.01 0.05 0.03 0.01 0.00 0.00 0.00 0.00 0.00 0.00 0.00 0.00 0.00 0.01 0.02 0.02 0.01 0.00 0.00 0.00 0.00 0.00 0.00 0.00 0.00 0.00 0.00 0.00 0.00 0.00 0.00 0.00 0.00 0.00 0.00
0.00 0.00 0.01 0.00 0.00 0.00 0.00 0.00 0.00 0.00 0.00 0.00 0.00 0.00 0.00 0.00 0.00 0.00 0.00 0.00 0.02 0.05 0.01 0.00 0.00 0.00 0.00 0.00 0.00 0.00 0.00 0.00 0.00 0.02 0.04 0.04 0.01 0.00 0.00 0.00 0.00 0.00 0.00 0.00 0.00 0.00 0.00 0.00 0.00 0.00 0.00 0.00 0.00 0.01
0.00 0.00 0.01 0.00 0.00 0.00 0.00 0.00 0.00 0.00 0.00 0.00 0.00 0.00 0.00 0.00 0.00 0.00 0.01 0.00 0.02 0.03 0.00 0.00 0.00 0.00 0.00 0.00 0.00 0.00 0.00 0.00 0.00 0.03 0.05 0.03 0.02 0.02 0.00 0.00 0.00 0.00 0.00 0.00 0.00 0.00 0.00 0.00 0.00 0.00 0.00 0.00 0.00 0.02
0.00 0.00 0.01 0.00 0.00 0.00 0.00 0.00 0.00 0.00 0.00 0.00 0.00 0.00 0.00 0.00 0.00 0.00 0.00 0.00 0.01 0.02 0.00 0.00 0.00 0.00 0.00 0.00 0.00 0.00 0.00 0.00 0.01 0.05 0.04 0.02 0.01 0.00 0.00 0.00 0.00 0.00 0.00 0.00 0.00 0.00 0.00 0.00 0.00 0.00 0.00 0.00 0.00 0.00
0.00 0.00 0.01 0.00 0.00 0.00 0.00 0.00 0.00 0.00 0.00 0.00 0.00 0.00 0.00 0.00 0.00 0.00 0.00 0.00 0.01 0.02 0.01 0.00 0.00 0.00 0.00 0.00 0.00 0.00 0.00 0.00 0.00 0.03 0.03 0.01 0.01 0.00 0.00 0.00 0.00 0.00 0.00 0.00 0.00 0.00 0.00 0.00 0.00 0.00 0.00 0.00 0.00 0.00
0.00 0.00 0.01 0.00 0.00 0.00 0.00 0.00 0.00 0.00 0.00 0.00 0.00 0.00 0.01 0.01 0.00 0.00 0.01 0.06 0.08 0.04 0.02 0.00 0.00 0.00 0.00 0.00 0.00 0.00 0.00 0.00 0.01 0.02 0.02 0.02 0.01 0.00 0.00 0.00 0.00 0.00 0.00 0.00 0.00 0.00 0.00 0.00 0.00 0.00 0.00 0.00 0.00 0.00
0.00 0.00 0.01 0.00 0.00 0.00 0.00 0.00 0.00 0.00 0.00 0.00 0.00 0.00 0.00 0.00 0.01 0.00 0.02 0.10 0.08 0.04 0.02 0.00 0.00 0.00 0.00 0.00 0.00 0.00 0.00 0.01 0.01 0.01 0.01 0.01 0.06 0.11 0.02 0.00 0.00 0.00 0.00 0.00 0.00 0.00 0.00 0.00 0.00 0.00 0.00 0.00 0.00 0.00
0.00 0.00 0.01 0.00 0.00 0.00 0.00 0.00 0.00 0.00 0.00 0.00 0.00 0.00 0.00 0.00 0.00 0.00 0.00 0.01 0.10 0.09 0.01 0.00 0.00 0.00 0.00 0.00 0.00 0.00 0.00 0.01 0.01 0.01 0.02 0.03 0.01 0.03 0.02 0.00 0.00 0.00 0.00 0.00 0.00 0.00 0.00 0.00 0.00 0.00 0.00 0.00 0.00 0.00
0.00 0.00 0.01 0.00 0.00 0.00 0.00 0.00 0.00 0.00 0.00 0.00 0.00 0.00 0.03 0.01 0.01 0.01 0.01 0.02 0.12 0.11 0.02 0.00 0.00 0.00 0.00 0.00 0.00 0.01 0.01 0.01 0.01 0.02 0.01 0.00 0.00 0.01 0.00 0.00 0.00 0.00 0.00 0.00 0.00 0.00 0.00 0.00 0.00 0.00 0.00 0.00 0.00 0.00
0.00 0.00 0.01 0.00 0.00 0.00 0.00 0.00 0.00 0.00 0.00 0.00 0.00 0.00 0.04 0.00 0.00 0.00 0.05 0.17 0.15 0.09 0.02 0.00 0.00 0.00 0.00 0.00 0.00 0.00 0.00 0.00 0.00 0.01 0.01 0.01 0.00 0.00 0.00 0.00 0.00 0.00 0.00 0.00 0.00 0.00 0.00 0.00 0.00 0.00 0.00 0.00 0.00 0.00
0.00 0.00 0.01 0.00 0.00 0.00 0.00 0.00 0.00 0.00 0.00 0.00 0.00 0.00 0.01 0.00 0.01 0.07 0.17 0.17 0.12 0.05 0.01 0.00 0.00 0.00 0.00 0.00 0.00 0.00 0.00 0.00 0.00 0.00 0.00 0.00 0.00 0.00 0.00 0.00 0.00 0.00 0.00 0.00 0.00 0.00 0.00 0.00 0.00 0.00 0.00 0.00 0.00 0.00
0.00 0.00 0.00 0.00 0.00 0.00 0.00 0.00 0.00 0.00 0.00 0.00 0.00 0.00 0.00 0.02 0.06 0.11 0.22 0.12 0.01 0.00 0.00 0.00 0.00 0.00 0.00 0.00 0.00 0.00 0.00 0.00 0.00 0.00 0.00 0.00 0.00 0.00 0.00 0.00 0.00 0.00 0.00 0.00 0.00 0.00 0.00 0.00 0.00 0.00 0.00 0.00 0.00 0.00
0.00 0.00 0.00 0.00 0.00 0.00 0.00 0.00 0.00 0.00 0.00 0.00 0.00 0.00 0.02 0.01 0.04 0.09 0.16 0.11 0.01 0.00 0.00 0.00 0.00 0.00 0.00 0.00 0.00 0.00 0.00 0.00 0.00 0.00 0.00 0.00 0.00 0.00 0.00 0.00 0.00 0.00 0.00 0.00 0.00 0.00 0.00 0.00 0.00 0.00 0.00 0.00 0.00 0.00
0.00 0.00 0.00 0.00 0.00 0.00 0.00 0.00 0.00 0.00 0.00 0.00 0.00 0.00 0.01 0.00 0.01 0.02 0.02 0.02 0.02 0.01 0.00 0.01 0.00 0.00 0.00 0.00 0.00 0.00 0.00 0.00 0.00 0.00 0.00 0.00 0.00 0.00 0.00 0.00 0.00 0.00 0.00 0.00 0.00 0.00 0.00 0.00 0.00 0.00 0.00 0.00 0.00 0.00
0.00 0.00 0.00 0.00 0.00 0.00 0.00 0.00 0.00 0.00 0.00 0.00 0.00 0.00 0.00 0.00 0.00 0.00 0.00 0.02 0.02 0.01 0.02 0.01 0.00 0.00 0.00 0.00 0.00 0.00 0.00 0.00 0.00 0.00 0.00 0.00 0.00 0.00 0.00 0.00 0.00 0.00 0.00 0.00 0.00 0.00 0.00 0.00 0.00 0.00 0.00 0.00 0.00 0.00
0.00 0.00 0.00 0.00 0.00 0.00 0.00 0.00 0.00 0.00 0.00 0.00 0.00 0.00 0.00 0.00 0.00 0.00 0.00 0.00 0.00 0.02 0.01 0.01 0.01 0.00 0.00 0.00 0.00 0.00 0.00 0.00 0.00 0.00 0.00 0.00 0.00 0.00 0.00 0.00 0.00 0.00 0.00 0.00 0.00 0.00 0.00 0.00 0.00 0.00 0.00 0.00 0.00 0.00
0.01 0.00 0.00 0.00 0.00 0.00 0.00 0.00 0.00 0.00 0.00 0.00 0.00 0.00 0.00 0.00 0.00 0.00 0.00 0.00 0.00 0.01 0.03 0.04 0.04 0.01 0.00 0.00 0.00 0.00 0.00 0.00 0.00 0.00 0.00 0.00 0.00 0.00 0.00 0.00 0.00 0.00 0.00 0.00 0.00 0.00 0.00 0.00 0.00 0.00 0.00 0.00 0.00 0.00
0.00 0.00 0.00 0.00 0.00 0.00 0.00 0.00 0.00 0.00 0.00 0.00 0.00 0.00 0.00 0.00 0.00 0.00 0.00 0.00 0.00 0.01 0.05 0.10 0.09 0.04 0.00 0.00 0.00 0.00 0.00 0.00 0.00 0.00 0.00 0.00 0.00 0.00 0.00 0.00 0.00 0.00 0.00 0.00 0.00 0.00 0.00 0.00 0.00 0.00 0.00 0.00 0.00 0.00
0.00 0.00 0.00 0.00 0.00 0.00 0.00 0.00 0.00 0.00 0.00 0.00 0.00 0.00 0.00 0.00 0.00 0.00 0.00 0.00 0.00 0.00 0.01 0.05 0.06 0.03 0.00 0.00 0.00 0.00 0.00 0.00 0.00 0.00 0.00 0.00 0.00 0.00 0.00 0.00 0.00 0.00 0.00 0.00 0.00 0.00 0.00 0.00 0.00 0.00 0.00 0.00 0.00 0.00
0.01 0.00 0.00 0.00 0.00 0.00 0.00 0.00 0.00 0.00 0.00 0.00 0.00 0.00 0.00 0.00 0.00 0.00 0.00 0.00 0.00 0.01 0.00 0.01 0.01 0.01 0.01 0.03 0.03 0.02 0.00 0.00 0.00 0.00 0.00 0.00 0.00 0.00 0.00 0.00 0.00 0.00 0.00 0.00 0.00 0.00 0.00 0.00 0.00 0.00 0.00 0.00 0.00 0.00
0.00 0.00 0.00 0.00 0.00 0.00 0.00 0.00 0.00 0.00 0.00 0.00 0.00 0.00 0.00 0.00 0.00 0.00 0.00 0.00 0.00 0.00 0.00 0.00 0.00 0.00 0.00 0.01 0.03 0.04 0.02 0.01 0.00 0.00 0.00 0.00 0.00 0.00 0.00 0.00 0.00 0.00 0.00 0.00 0.00 0.00 0.00 0.00 0.00 0.00 0.00 0.00 0.00 0.00
0.00 0.00 0.00 0.00 0.00 0.00 0.00 0.00 0.00 0.00 0.00 0.00 0.00 0.00 0.00 0.00 0.00 0.00 0.00 0.00 0.00 0.00 0.00 0.00 0.00 0.00 0.00 0.00 0.01 0.03 0.04 0.02 0.01 0.00 0.00 0.00 0.00 0.00 0.00 0.00 0.00 0.00 0.00 0.00 0.00 0.00 0.00 0.00 0.00 0.00 0.00 0.00 0.00 0.00
0.00 0.00 0.00 0.00 0.00 0.00 0.00 0.00 0.00 0.00 0.00 0.00 0.00 0.00 0.00 0.00 0.00 0.00 0.00 0.00 0.00 0.00 0.00 0.00 0.00 0.00 0.00 0.00 0.01 0.01 0.04 0.07 0.04 0.02 0.01 0.00 0.00 0.00 0.00 0.00 0.00 0.00 0.00 0.00 0.00 0.00 0.00 0.00 0.00 0.00 0.00 0.00 0.00 0.00
0.00 0.00 0.00 0.00 0.00 0.00 0.00 0.00 0.00 0.00 0.00 0.00 0.00 0.00 0.00 0.00 0.00 0.00 0.00 0.00 0.00 0.00 0.00 0.00 0.00 0.00 0.00 0.00 0.00 0.01 0.02 0.06 0.10 0.10 0.06 0.03 0.00 0.00 0.00 0.00 0.00 0.00 0.00 0.00 0.00 0.00 0.00 0.00 0.00 0.00 0.00 0.00 0.00 0.00
0.00 0.00 0.00 0.00 0.00 0.00 0.00 0.00 0.00 0.00 0.00 0.00 0.00 0.00 0.00 0.00 0.00 0.00 0.00 0.00 0.00 0.00 0.00 0.00 0.00 0.00 0.00 0.00 0.00 0.00 0.01 0.05 0.07 0.11 0.16 0.15 0.07 0.02 0.00 0.00 0.00 0.00 0.00 0.00 0.00 0.00 0.00 0.00 0.00 0.00 0.00 0.00 0.00 0.00
0.00 0.00 0.00 0.00 0.00 0.00 0.00 0.00 0.00 0.00 0.00 0.00 0.00 0.00 0.00 0.00 0.00 0.00 0.00 0.00 0.00 0.00 0.00 0.00 0.00 0.00 0.00 0.00 0.00 0.00 0.01 0.03 0.06 0.06 0.08 0.16 0.15 0.09 0.03 0.00 0.00 0.00 0.00 0.00 0.00 0.00 0.00 0.00 0.00 0.00 0.00 0.00 0.00 0.00
0.00 0.00 0.00 0.00 0.00 0.00 0.00 0.00 0.00 0.00 0.00 0.00 0.00 0.00 0.00 0.00 0.00 0.00 0.00 0.00 0.00 0.00 0.00 0.00 0.00 0.00 0.00 0.00 0.00 0.00 0.00 0.02 0.05 0.05 0.08 0.11 0.10 0.09 0.05 0.01 0.00 0.00 0.00 0.00 0.00 0.00 0.00 0.01 0.00 0.00 0.00 0.00 0.00 0.00
0.00 0.00 0.00 0.00 0.00 0.00 0.00 0.00 0.00 0.00 0.00 0.00 0.00 0.00 0.00 0.00 0.00 0.00 0.00 0.00 0.00 0.00 0.00 0.00 0.00 0.00 0.00 0.00 0.00 0.00 0.00 0.01 0.03 0.06 0.08 0.10 0.08 0.07 0.05 0.02 0.01 0.01 0.04 0.05 0.04 0.03 0.03 0.02 0.01 0.00 0.00 0.00 0.00 0.01
0.00 0.00 0.00 0.00 0.00 0.00 0.00 0.00 0.00 0.00 0.00 0.00 0.00 0.00 0.00 0.00 0.00 0.00 0.00 0.00 0.00 0.00 0.00 0.00 0.00 0.00 0.00 0.00 0.00 0.00 0.01 0.02 0.03 0.04 0.05 0.06 0.08 0.08 0.08 0.07 0.07 0.07 0.12 0.14 0.11 0.06 0.04 0.03 0.01 0.00 0.00 0.01 0.01 0.01
0.00 0.00 0.00 0.00 0.00 0.00 0.00 0.00 0.00 0.00 0.00 0.00 0.00 0.00 0.00 0.00 0.00 0.00 0.00 0.00 0.00 0.00 0.00 0.00 0.00 0.00 0.00 0.00 0.00 0.00 0.01 0.02 0.03 0.03 0.04 0.06 0.08 0.09 0.09 0.08 0.08 0.10 0.12 0.11 0.16 0.17 0.09 0.03 0.03 0.03 0.02 0.02 0.02 0.01
0.00 0.00 0.00 0.00 0.00 0.00 0.00 0.00 0.00 0.00 0.00 0.00 0.00 0.00 0.00 0.00 0.00 0.00 0.00 0.00 0.00 0.00 0.00 0.00 0.00 0.00 0.00 0.00 0.00 0.01 0.01 0.02 0.04 0.05 0.06 0.08 0.09 0.09 0.09 0.10 0.11 0.12 0.13 0.11 0.09 0.07 0.06 0.05 0.05 0.05 0.04 0.02 0.01 0.00
0.00 0.00 0.00 0.00 0.00 0.00 0.00 0.00 0.00 0.00 0.00 0.00 0.00 0.00 0.00 0.00 0.00 0.00 0.00 0.00 0.00 0.00 0.00 0.00 0.00 0.00 0.01 0.01 0.01 0.02 0.03 0.04 0.06 0.08 0.08 0.07 0.08 0.09 0.10 0.11 0.13 0.14 0.14 0.12 0.10 0.08 0.06 0.05 0.05 0.04 0.02 0.01 0.00 0.00
0.00 0.00 0.00 0.00 0.00 0.00 0.00 0.00 0.00 0.00 0.00 0.00 0.00 0.00 0.00 0.00 0.00 0.00 0.00 0.00 0.00 0.00 0.00 0.00 0.01 0.03 0.03 0.03 0.04 0.05 0.06 0.08 0.10 0.12 0.13 0.12 0.10 0.11 0.13 0.14 0.16 0.16 0.14 0.11 0.09 0.06 0.04 0.02 0.01 0.01 0.00 0.00 0.00 0.00
MSLP
1019.06 1018.64 1018.14 1017.60 1017.21 1016.81 1016.52 1016.23 1015.91 1015.42 1015.02 1014.59 1014.29 1013.71 1013.24 1012.66 1012.25 1012.00 1011.78 1011.76 1011.83 1010.74 1008.50 1007.31 1006.85 1006.67 1006.80 1006.75 1007.08 1007.93 1008.48 1008.58 1008.65 1008.61 1008.20 1007.41 1006.86 1006.14 1005.81 1005.29 1005.17 1005.34 1005.71 1005.62 1004.98 1003.94 1002.41 1001.82 1001.96 1001.82 1001.66 1001.69 1001.97 1001.96
1018.98 1018.26 1017.80 1017.24 1016.96 1016.39 1016.38 1016.07 1015.69 1015.26 1014.86 1014.52 1014.26 1013.83 1013.40 1013.12 1012.77 1012.36 1011.96 1011.66 1011.68 1011.20 1009.01 1007.77 1007.07 1006.70 1006.54 1006.44 1006.87 1007.46 1007.83 1007.90 1008.11 1008.19 1007.90 1007.45 1006.76 1006.13 1005.42 1004.55 1004.85 1004.63 1004.13 1003.68 1003.42 1002.00 1001.46 1001.51 1001.41 1001.48 1001.96 1002.19 1002.27 1002.36
1018.71 1017.95 1017.51 1017.00 1016.97 1016.15 1016.03 1015.90 1015.43 1015.01 1014.58 1014.15 1013.97 1013.53 1013.16 1012.92 1012.68 1012.43 1011.94 1011.53 1011.16 1010.66 1008.57 1007.65 1006.85 1006.81 1006.75 1006.70 1006.51 1006.98 1007.64 1007.53 1007.92 1007.78 1007.79 1007.40 1006.81 1006.06 1004.94 1004.34 1003.95 1003.80 1003.68 1003.23 1002.77 1001.37 1001.21 1001.19 1001.43 1001.89 1002.36 1002.59 1002.82 1002.98
1018.21 1017.51 1016.79 1016.74 1016.73 1015.91 1015.53 1015.67 1015.23 1014.67 1014.22 1013.77 1013.46 1013.23 1012.82 1012.54 1012.22 1012.00 1011.79 1011.60 1011.69 1011.45 1009.95 1007.57 1006.99 1007.02 1007.09 1006.92 1006.86 1006.98 1007.13 1007.65 1007.79 1007.89 1007.64 1007.18 1006.52 1005.76 1004.81 1004.45 1003.83 1003.24 1003.31 1002.48 1001.94 1001.25 1001.14 1001.39 1001.96 1002.46 1002.95 1003.33 1003.48 1003.82
1017.97 1017.19 1016.22 1016.22 1016.28 1015.73 1015.18 1015.03 1014.83 1014.20 1013.74 1013.28 1012.89 1012.65 1012.40 1012.01 1011.70 1011.37 1011.11 1010.82 1011.10 1011.50 1010.13 1007.98 1007.21 1007.26 1007.23 1007.09 1007.06 1007.10 1007.18 1007.49 1007.68 1007.64 1007.28 1006.72 1006.01 1006.01 1005.00 1004.55 1003.06 1002.56 1001.64 1001.48 1001.08 1001.46 1001.71 1002.01 1002.75 1003.29 1003.52 1004.15 1004.45 1004.57
1017.31 1016.70 1016.00 1015.74 1015.63 1015.43 1014.81 1014.59 1014.39 1013.82 1013.16 1012.65 1012.26 1012.00 1011.76 1011.49 1011.44 1011.44 1010.72 1010.61 1010.80 1011.04 1010.56 1008.40 1007.51 1007.39 1007.35 1007.27 1007.23 1007.28 1007.37 1007.45 1007.52 1007.22 1006.79 1006.05 1005.61 1005.59 1004.27 1003.03 1001.45 1001.19 1001.27 1001.34 1001.23 1001.95 1002.38 1002.91 1003.39 1003.85 1004.25 1005.02 1005.33 1005.37
1016.76 1016.21 1015.86 1015.40 1015.28 1014.89 1014.40 1014.07 1013.81 1013.13 1012.45 1011.85 1011.42 1011.05 1010.70 1010.53 1010.64 1010.81 1010.33 1010.27 1010.56 1010.79 1010.17 1008.44 1007.47 1007.15 1007.18 1007.25 1007.32 1007.33 1007.35 1007.37 1007.29 1006.97 1006.59 1006.07 1005.47 1005.16 1004.06 1002.24 1000.94 1000.86 1001.19 1001.59 1002.04 1002.45 1002.99 1003.38 1003.52 1004.35 1004.89 1005.74 1006.22 1006.44
1016.09 1015.74 1015.34 1015.06 1014.99 1014.36 1014.03 1013.70 1013.16 1012.48 1011.78 1011.15 1010.51 1009.85 1009.45 1009.29 1009.84 1010.21 1009.92 1009.93 1010.35 1010.22 1009.51 1008.33 1007.60 1007.28 1007.23 1007.07 1007.00 1006.95 1006.96 1007.06 1006.84 1006.59 1006.17 1005.61 1005.24 1004.87 1003.00 1001.03 1000.79 1001.03 1001.48 1001.86 1002.29 1002.87 1003.22 1003.58 1004.40 1005.03 1005.59 1006.14 1006.67 1007.14
1015.48 1015.26 1014.96 1014.63 1014.70 1013.94 1013.42 1013.26 1012.67 1012.03 1011.23 1010.45 1009.66 1009.06 1009.02 1009.11 1009.62 1009.79 1009.88 1010.08 1010.12 1010.36 1008.86 1007.92 1007.38 1007.16 1007.13 1006.79 1006.79 1006.78 1006.71 1006.54 1006.44 1006.22 1005.88 1005.68 1004.50 1003.49 1001.10 1000.50 1000.42 1000.68 1001.25 1001.69 1002.85 1003.29 1003.70 1004.08 1004.76 1005.40 1005.81 1006.41 1006.77 1007.56
1015.03 1014.73 1014.60 1014.42 1014.48 1013.51 1013.03 1012.65 1012.11 1011.64 1010.92 1010.18 1009.69 1009.47 1009.58 1009.75 1009.90 1009.64 1009.68 1009.37 1009.42 1009.00 1008.48 1007.59 1007.13 1006.94 1007.00 1006.77 1006.68 1006.84 1006.86 1006.79 1006.68 1006.31 1006.05 1005.26 1003.35 1001.79 1000.71 1000.66 1000.52 1000.71 1001.36 1002.28 1002.95 1003.63 1004.07 1004.59 1004.88 1005.47 1005.87 1006.48 1007.03 1007.79
1014.38 1014.25 1014.06 1014.20 1014.20 1013.21 1012.67 1012.25 1011.90 1011.36 1011.07 1010.77 1010.54 1010.53 1010.30 1009.86 1009.49 1009.04 1008.80 1008.63 1008.39 1007.93 1007.46 1007.13 1006.95 1006.75 1006.88 1006.81 1006.72 1007.07 1007.05 1007.13 1007.02 1006.73 1006.34 1004.83 1002.86 1001.30 1001.06 1000.99 1000.94 1000.89 1001.38 1002.02 1002.46 1002.68 1003.12 1003.51 1004.34 1005.09 1006.09 1006.92 1007.67 1008.42
1013.94 1013.90 1013.63 1013.68 1013.65 1012.86 1012.30 1012.05 1011.66 1011.71 1011.68 1011.28 1011.18 1010.99 1010.64 1010.27 1009.62 1009.28 1008.82 1008.23 1007.87 1007.67 1007.37 1007.21 1007.19 1007.17 1007.22 1007.10 1006.88 1007.44 1007.38 1007.47 1007.06 1006.92 1006.52 1004.74 1002.19 1001.55 1001.63 1001.49 1001.36 1001.17 1001.45 1002.09 1002.64 1002.94 1003.24 1003.75 1004.43 1005.40 1006.33 1007.35 1008.26 1009.14
1013.49 1013.41 1013.10 1013.34 1013.02 1012.49 1012.28 1011.77 1011.49 1011.23 1011.00 1010.94 1010.99 1011.02 1010.67 1010.39 1009.99 1009.66 1009.41 1008.67 1008.29 1008.25 1008.06 1007.67 1007.56 1007.30 1007.70 1007.43 1007.38 1007.52 1007.50 1007.42 1007.21 1006.94 1005.76 1003.63 1002.19 1002.11 1002.10 1002.08 1001.95 1001.85 1001.95 1002.37 1002.99 1003.39 1003.79 1004.41 1005.11 1005.64 1006.71 1007.97 1008.90 1009.84
1013.00 1012.78 1012.73 1012.78 1012.48 1012.17 1011.98 1011.57 1011.27 1011.10 1011.07 1010.99 1011.17 1011.18 1011.06 1010.71 1010.57 1010.34 1010.26 1010.02 1009.61 1009.16 1008.67 1008.17 1007.85 1007.72 1007.68 1007.59 1007.61 1007.63 1007.56 1007.50 1007.25 1006.71 1004.93 1003.19 1002.64 1002.65 1002.63 1002.76 1002.73 1002.71 1002.71 1002.98 1003.52 1004.06 1004.63 1005.22 1005.95 1006.68 1007.41 1008.18 1009.11 1010.22
1012.48 1012.32 1012.33 1012.20 1012.20 1011.94 1011.76 1011.37 1011.30 1011.22 1011.28 1011.26 1011.39 1011.43 1011.30 1011.25 1011.08 1010.89 1010.64 1010.33 1009.89 1009.39 1008.98 1008.49 1008.25 1008.08 1007.86 1007.86 1007.77 1007.74 1007.72 1007.24 1006.48 1004.97 1003.79 1003.08 1003.22 1003.28 1003.20 1003.26 1003.28 1003.43 1003.66 1003.92 1004.20 1004.65 1005.36 1006.06 1006.61 1007.55 1008.41 1009.05 1009.83 1010.68
1011.91 1011.95 1011.87 1011.73 1011.79 1011.65 1011.56 1011.35 1011.41 1011.53 1011.61 1011.52 1011.64 1011.42 1011.08 1011.19 1011.16 1010.99 1010.78 1010.54 1010.02 1009.48 1008.89 1008.72 1008.39 1008.22 1007.87 1007.70 1007.92 1007.49 1007.36 1006.23 1004.91 1004.33 1003.71 1003.77 1003.74 1003.75 1003.75 1003.72 1003.76 1003.94 1004.17 1004.55 1005.00 1005.44 1005.93 1006.55 1007.18 1008.03 1009.06 1009.87 1010.63 1011.29
1011.61 1011.63 1011.36 1011.43 1011.56 1011.54 1011.58 1011.58 1011.69 1011.88 1011.92 1011.66 1011.52 1011.32 1011.22 1011.48 1011.46 1011.26 1010.98 1010.67 1010.27 1009.86 1009.20 1008.85 1008.63 1008.16 1008.27 1008.07 1007.94 1007.30 1006.77 1006.20 1005.97 1005.27 1005.19 1005.08 1004.77 1004.42 1004.30 1004.30 1004.35 1004.49 1004.68 1005.11 1005.65 1006.21 1006.72 1007.37 1008.02 1008.77 1009.71 1010.84 1011.48 1012.26
1011.19 1011.17 1011.18 1011.14 1011.45 1011.60 1011.93 1011.78 1011.85 1012.27 1012.48 1011.75 1011.67 1011.64 1011.49 1011.59 1011.57 1011.35 1011.04 1010.87 1010.77 1010.39 1009.89 1009.43 1009.21 1008.85 1008.36 1008.13 1007.70 1007.90 1007.68 1007.37 1006.80 1006.39 1006.07 1005.91 1005.75 1005.44 1005.09 1004.76 1004.77 1005.02 1005.37 1005.68 1006.03 1006.77 1007.46 1007.92 1008.41 1009.30 1010.27 1011.18 1012.19 1013.19
1010.61 1010.80 1010.97 1011.07 1011.20 1012.02 1012.41 1012.66 1012.41 1012.46 1012.87 1012.52 1012.08 1012.09 1012.10 1012.02 1011.90 1011.82 1011.53 1011.18 1010.86 1010.70 1010.56 1009.88 1009.41 1008.77 1008.40 1008.45 1008.69 1008.83 1008.73 1008.40 1007.75 1007.04 1006.49 1006.19 1006.27 1006.14 1005.89 1005.60 1005.46 1005.51 1005.85 1006.34 1006.66 1007.14 1007.87 1008.51 1009.13 1009.88 1010.61 1011.37 1012.25 1013.33
1009.82 1010.50 1010.94 1011.01 1011.27 1012.34 1012.81 1013.11 1012.89 1012.71 1013.16 1013.01 1012.81 1012.74 1012.59 1012.46 1012.34 1012.15 1011.87 1011.38 1010.73 1010.79 1010.63 1010.07 1009.44 1009.54 1009.89 1010.04 1009.99 1009.75 1009.40 1008.94 1008.26 1007.13 1006.50 1006.28 1006.51 1006.62 1006.57 1006.48 1006.15 1006.17 1006.27 1006.81 1007.30 1007.70 1008.39 1009.26 1010.08 1010.60 1011.14 1011.83 1012.51 1013.62
1010.10 1010.88 1011.15 1011.35 1012.03 1012.75 1012.87 1013.00 1013.10 1013.33 1013.35 1013.14 1013.27 1013.38 1013.17 1012.90 1012.80 1012.44 1012.01 1011.63 1011.01 1010.67 1010.31 1010.20 1010.45 1010.68 1010.80 1010.56 1010.30 1009.94 1009.47 1009.12 1008.52 1008.07 1007.10 1006.60 1006.73 1006.98 1006.92 1006.98 1006.92 1006.75 1006.69 1006.94 1007.38 1008.06 1008.55 1009.17 1009.99 1010.76 1011.45 1012.37 1013.40 1014.17
1010.30 1010.67 1011.37 1011.87 1012.70 1013.42 1013.33 1013.18 1013.29 1013.75 1014.14 1013.79 1013.79 1014.04 1013.73 1013.29 1013.04 1012.83 1012.62 1011.99 1011.23 1010.69 1010.90 1010.96 1011.17 1011.43 1011.18 1010.86 1010.48 1010.15 1009.42 1008.90 1008.23 1007.65 1007.19 1006.61 1006.64 1007.10 1007.05 1007.05 1007.19 1007.06 1006.99 1007.17 1007.49 1007.96 1008.73 1009.45 1010.06 1011.04 1011.99 1013.05 1013.99 1014.74
1010.19 1010.82 1011.72 1012.40 1013.20 1013.50 1014.16 1014.16 1014.04 1014.43 1014.28 1014.35 1014.70 1014.60 1014.21 1013.91 1013.46 1013.29 1012.60 1011.64 1011.12 1011.05 1011.30 1011.60 1011.84 1011.88 1011.58 1010.87 1010.40 1009.72 1009.25 1008.77 1008.08 1007.51 1007.04 1006.39 1006.05 1006.60 1006.95 1006.90 1006.94 1007.13 1007.30 1007.53 1007.79 1008.47 1009.03 1009.70 1010.53 1011.07 1012.23 1013.28 1014.15 1015.21
1010.27 1011.34 1012.10 1012.72 1013.21 1013.79 1014.08 1014.65 1014.74 1014.73 1014.79 1014.79 1015.06 1014.92 1014.60 1014.26 1013.95 1013.58 1012.66 1011.57 1011.00 1011.23 1011.59 1011.94 1012.08 1011.57 1011.03 1010.72 1010.28 1009.72 1009.22 1008.93 1008.08 1007.28 1006.78 1006.40 1005.91 1006.08 1006.49 1006.67 1006.74 1006.86 1007.07 1007.67 1008.07 1008.57 1009.37 1010.09 1010.71 1011.51 1012.32 1013.17 1014.39 1015.35
1010.56 1012.00 1012.56 1013.01 1013.57 1013.86 1014.15 1014.67 1015.00 1014.83 1015.12 1015.22 1015.35 1015.04 1014.80 1014.54 1014.23 1013.65 1012.58 1011.52 1011.30 1011.38 1011.78 1012.09 1012.17 1012.10 1011.77 1010.77 1010.21 1009.66 1009.35 1009.07 1008.39 1007.74 1006.87 1006.44 1005.94 1005.80 1006.14 1006.57 1006.76 1006.94 1007.19 1007.54 1008.18 1008.59 1009.43 1010.31 1010.97 1011.52 1012.46 1013.41 1014.42 1015.59
1010.29 1011.37 1011.65 1011.63 1012.69 1013.15 1013.49 1014.24 1014.70 1014.64 1014.95 1015.32 1015.24 1015.10 1015.16 1014.77 1014.35 1013.18 1011.98 1011.14 1011.17 1011.53 1011.75 1011.91 1012.03 1011.80 1011.32 1011.10 1010.42 1009.72 1009.25 1008.96 1008.61 1007.72 1006.81 1006.25 1005.71 1005.51 1005.47 1006.09 1006.62 1007.11 1007.10 1007.22 1007.58 1008.38 1009.05 1010.21 1011.04 1011.70 1012.71 1013.83 1014.65 1015.68
1009.75 1010.35 1010.96 1011.19 1011.63 1012.42 1013.36 1013.80 1014.01 1014.38 1014.84 1014.57 1014.63 1015.13 1015.14 1014.91 1013.81 1012.14 1010.96 1010.98 1011.27 1011.41 1011.51 1011.70 1011.99 1011.88 1011.24 1010.59 1010.18 1009.65 1009.20 1008.74 1008.30 1007.41 1006.85 1006.29 1005.73 1005.32 1005.00 1005.25 1005.81 1006.16 1006.64 1007.14 1007.63 1008.32 1008.92 1009.96 1011.22 1012.14 1012.95 1014.19 1015.18 1015.85
1008.65 1009.41 1010.44 1011.39 1011.92 1012.72 1013.24 1013.67 1013.85 1013.77 1013.33 1013.50 1014.01 1014.59 1014.04 1013.18 1011.89 1010.80 1010.74 1010.95 1011.17 1011.51 1011.67 1011.64 1011.49 1011.20 1010.75 1010.16 1009.69 1009.23 1008.61 1008.09 1007.48 1006.88 1006.26 1005.75 1005.29 1005.03 1004.93 1005.03 1005.41 1005.87 1006.37 1006.95 1007.62 1008.62 1009.58 1010.11 1011.40 1012.60 1013.63 1014.62 1015.82 1016.79
1008.69 1009.48 1010.38 1011.94 1012.72 1013.20 1013.28 1013.12 1012.96 1012.41 1011.96 1012.59 1012.96 1012.87 1012.34 1011.59 1010.94 1010.83 1011.02 1011.28 1011.59 1011.77 1011.66 1011.18 1010.41 1010.23 1009.87 1009.27 1008.70 1008.20 1007.85 1007.50 1007.09 1006.37 1005.80 1005.36 1005.24 1005.12 1004.94 1004.73 1005.14 1006.01 1006.57 1007.19 1008.05 1008.72 1009.68 1010.42 1011.55 1012.80 1014.25 1015.44 1016.61 1017.48
1008.82 1009.50 1010.73 1011.95 1012.71 1013.07 1012.70 1012.84 1012.89 1012.65 1012.41 1012.35 1012.50 1012.35 1012.05 1011.33 1010.77 1010.94 1011.14 1011.39 1011.59 1011.39 1011.12 1010.89 1010.48 1010.11 1009.40 1008.74 1007.85 1007.11 1006.69 1006.45 1006.29 1006.02 1005.44 1005.11 1004.99 1005.03 1004.99 1005.17 1005.39 1006.20 1006.79 1007.31 1008.20 1009.35 1010.41 1011.72 1012.86 1014.06 1015.26 1016.63 1017.49 1018.38
1009.00 1010.06 1011.16 1011.96 1012.81 1013.31 1013.80 1013.90 1013.60 1013.01 1013.17 1013.36 1013.45 1013.44 1012.88 1012.20 1011.05 1010.77 1011.04 1011.10 1011.09 1011.09 1010.74 1010.29 1009.75 1009.15 1008.67 1008.09 1007.54 1006.79 1005.94 1005.34 1005.27 1005.23 1005.15 1005.19 1005.19 1005.21 1005.29 1005.60 1006.01 1006.64 1007.29 1007.93 1008.90 1010.00 1010.94 1012.22 1013.31 1014.53 1015.90 1016.96 1018.00 1018.86
1009.68 1010.54 1011.54 1012.74 1013.49 1014.03 1014.30 1014.50 1014.28 1014.07 1014.20 1014.24 1014.04 1014.13 1013.51 1013.32 1012.60 1011.00 1010.83 1011.02 1010.98 1010.80 1010.30 1009.88 1009.29 1008.38 1007.77 1007.24 1006.71 1006.31 1005.61 1005.17 1004.78 1004.52 1004.52 1004.87 1005.10 1005.20 1005.73 1006.23 1006.54 1007.19 1008.12 1008.86 1009.80 1010.79 1011.74 1012.75 1014.18 1015.47 1016.49 1017.62 1018.74 1019.35
1010.91 1011.67 1012.65 1013.11 1013.98 1014.63 1014.79 1014.77 1014.78 1014.70 1014.67 1014.34 1014.21 1014.19 1014.03 1013.78 1012.82 1011.18 1010.86 1010.84 1010.78 1010.42 1010.03 1009.34 1008.50 1007.77 1007.11 1006.62 1006.32 1005.97 1005.58 1005.18 1004.90 1004.80 1004.91 1005.06 1005.17 1005.62 1006.49 1007.02 1007.32 1008.28 1009.15 1009.74 1010.78 1011.77 1012.88 1014.04 1015.17 1016.22 1017.25 1018.28 1019.02 1019.81
Thickness
5467 5466 5465 5463 5458 5455 5450 5446 5440 5435 5432 5430 5428 5429 5433 5437 5441 5445 5447 5449 5450 5459 5478 5498 5504 5507 5505 5511 5513 5507 5506 5505 5506 5507 5515 5527 5529 5541 5542 5549 5550 5550 5543 5538 5548 5550 5565 5575 5573 5577 5579 5574 5567 5568
5458 5464 5463 5460 5454 5453 5445 5441 5438 5433 5429 5425 5422 5421 5423 5427 5431 5437 5443 5447 5450 5454 5478 5490 5498 5504 5509 5513 5510 5507 5510 5511 5512 5511 5515 5517 5529 5534 5542 5553 5545 5548 5558 5565 5566 5579 5580 5578 5581 5581 5575 5572 5572 5571
5452 5459 5458 5456 5446 5449 5442 5435 5434 5430 5425 5420 5414 5412 5410 5414 5421 5428 5438 5444 5450 5457 5483 5489 5503 5502 5504 5507 5512 5511 5501 5512 5509 5511 5512 5515 5524 5528 5543 5548 5550 5551 5552 5560 5564 5581 5579 5582 5582 5577 5568 5568 5564 5564
5449 5457 5458 5452 5441 5444 5442 5429 5428 5425 5419 5414 5407 5401 5397 5400 5412 5420 5429 5438 5441 5444 5464 5495 5493 5499 5498 5502 5506 5508 5510 5505 5507 5506 5509 5514 5521 5532 5540 5541 5546 5555 5551 5562 5568 5579 5582 5580 5576 5570 5561 5559 5559 5558
5444 5451 5457 5452 5439 5438 5439 5430 5423 5421 5415 5408 5400 5392 5386 5389 5400 5415 5426 5436 5440 5443 5464 5489 5493 5491 5493 5498 5501 5503 5507 5507 5506 5508 5510 5515 5526 5512 5530 5527 5546 5553 5565 5569 5577 5576 5577 5578 5566 5559 5560 5554 5551 5549
5444 5447 5450 5449 5440 5432 5434 5428 5420 5417 5411 5404 5394 5385 5379 5380 5388 5403 5420 5430 5437 5441 5450 5483 5488 5488 5491 5494 5497 5499 5501 5504 5505 5508 5513 5521 5525 5518 5536 5548 5563 5565 5564 5570 5578 5568 5566 5560 5558 5555 5553 5546 5546 5545
5441 5443 5444 5443 5435 5431 5431 5426 5419 5415 5409 5401 5390 5380 5376 5378 5385 5398 5418 5430 5433 5438 5450 5478 5485 5490 5490 5492 5494 5496 5499 5501 5503 5508 5508 5514 5520 5515 5529 5549 5564 5565 5566 5565 5562 5561 5560 5556 5564 5550 5547 5540 5536 5535
5438 5441 5440 5437 5429 5431 5429 5423 5419 5415 5408 5399 5387 5376 5372 5375 5383 5397 5413 5424 5429 5439 5453 5475 5483 5489 5487 5494 5499 5499 5502 5501 5505 5509 5511 5514 5516 5517 5538 5559 5564 5562 5558 5559 5557 5552 5554 5552 5545 5539 5536 5535 5532 5528
5436 5437 5434 5432 5423 5430 5430 5422 5419 5414 5408 5400 5387 5373 5365 5369 5381 5396 5409 5419 5427 5436 5463 5474 5483 5489 5486 5494 5497 5497 5501 5510 5508 5511 5512 5509 5527 5530 5556 5564 5566 5565 5562 5563 5541 5544 5545 5547 5539 5534 5534 5532 5530 5523
5431 5432 5429 5426 5419 5429 5429 5425 5420 5414 5408 5399 5383 5370 5363 5365 5380 5399 5413 5426 5432 5444 5456 5477 5481 5489 5490 5493 5497 5500 5496 5503 5504 5511 5499 5508 5528 5549 5560 5562 5565 5562 5553 5540 5537 5526 5525 5523 5527 5531 5532 5531 5526 5517
5428 5427 5426 5420 5415 5426 5427 5425 5421 5415 5407 5396 5379 5367 5366 5376 5395 5413 5420 5433 5443 5458 5469 5478 5484 5489 5485 5490 5497 5491 5495 5486 5502 5505 5506 5518 5542 5554 5550 5549 5551 5559 5551 5546 5546 5547 5544 5545 5539 5534 5528 5522 5515 5509
5423 5420 5422 5417 5415 5424 5426 5424 5420 5412 5404 5395 5382 5375 5380 5389 5403 5419 5431 5437 5453 5465 5467 5475 5480 5480 5479 5479 5491 5483 5487 5485 5502 5487 5496 5517 5546 5540 5538 5541 5542 5551 5550 5544 5541 5540 5540 5538 5534 5528 5519 5514 5507 5499
5416 5416 5418 5412 5416 5421 5422 5423 5420 5416 5411 5403 5393 5387 5395 5406 5423 5429 5429 5442 5455 5450 5454 5461 5470 5476 5470 5475 5475 5477 5484 5493 5481 5490 5506 5531 5538 5532 5531 5531 5534 5538 5541 5538 5532 5531 5530 5526 5522 5522 5513 5504 5497 5490
5410 5414 5412 5411 5415 5418 5419 5422 5421 5417 5412 5408 5397 5398 5406 5413 5417 5419 5420 5428 5433 5437 5447 5457 5461 5468 5466 5472 5471 5478 5482 5478 5483 5490 5509 5527 5529 5525 5521 5522 5526 5530 5533 5530 5525 5522 5518 5516 5511 5508 5503 5498 5492 5483
5405 5408 5407 5409 5411 5414 5415 5420 5418 5415 5412 5408 5402 5406 5409 5406 5406 5411 5413 5420 5426 5435 5443 5452 5454 5463 5461 5464 5468 5470 5471 5478 5493 5513 5520 5519 5513 5510 5516 5516 5519 5520 5519 5516 5515 5513 5509 5505 5504 5496 5491 5489 5483 5476
5401 5400 5403 5406 5407 5410 5411 5415 5413 5409 5406 5407 5400 5402 5408 5404 5403 5408 5413 5416 5424 5432 5438 5442 5454 5461 5470 5468 5467 5474 5473 5487 5509 5499 5510 5504 5507 5508 5509 5508 5509 5509 5510 5507 5505 5503 5501 5497 5494 5488 5482 5477 5472 5467
5392 5394 5398 5400 5401 5404 5405 5407 5408 5404 5405 5406 5406 5405 5405 5398 5396 5403 5410 5415 5420 5424 5440 5441 5455 5470 5444 5458 5462 5470 5477 5488 5475 5485 5479 5480 5488 5497 5499 5499 5498 5499 5500 5498 5495 5492 5489 5483 5481 5477 5470 5462 5458 5453
5385 5389 5391 5395 5395 5396 5395 5398 5402 5395 5392 5404 5401 5400 5403 5397 5395 5399 5405 5408 5408 5411 5418 5432 5425 5442 5452 5458 5470 5457 5454 5450 5459 5463 5466 5469 5474 5479 5483 5490 5489 5490 5488 5487 5485 5478 5474 5473 5473 5467 5456 5450 5443 5437
5380 5383 5384 5387 5389 5385 5385 5385 5391 5382 5381 5388 5391 5391 5390 5391 5391 5389 5390 5395 5401 5402 5401 5414 5425 5441 5446 5436 5433 5430 5433 5436 5442 5450 5458 5460 5461 5466 5470 5474 5476 5478 5476 5473 5473 5471 5467 5465 5459 5453 5448 5445 5439 5432
5377 5375 5376 5378 5381 5374 5372 5372 5378 5380 5373 5378 5378 5376 5379 5380 5380 5379 5380 5383 5395 5394 5400 5410 5421 5413 5407 5404 5403 5408 5415 5423 5431 5446 5455 5459 5452 5450 5454 5458 5465 5465 5467 5464 5461 5459 5453 5448 5443 5441 5439 5434 5431 5423
5367 5364 5366 5369 5366 5362 5368 5368 5369 5368 5368 5371 5368 5364 5363 5367 5365 5370 5375 5375 5388 5396 5400 5388 5382 5376 5376 5379 5384 5391 5399 5407 5417 5424 5437 5443 5444 5440 5443 5444 5448 5453 5456 5456 5454 5451 5448 5443 5437 5434 5431 5424 5417 5411
5357 5357 5356 5355 5352 5347 5358 5361 5362 5354 5351 5351 5355 5348 5351 5360 5361 5359 5355 5365 5371 5374 5368 5367 5365 5358 5359 5361 5364 5368 5380 5390 5401 5410 5419 5429 5433 5430 5433 5435 5437 5440 5444 5444 5445 5443 5436 5433 5430 5423 5417 5410 5404 5399
5350 5349 5344 5343 5342 5341 5341 5336 5343 5339 5344 5337 5331 5332 5339 5341 5344 5334 5355 5364 5359 5353 5350 5344 5338 5334 5335 5340 5344 5352 5359 5368 5381 5392 5401 5414 5421 5421 5422 5425 5430 5429 5429 5431 5430 5426 5425 5423 5418 5416 5408 5401 5396 5389
5342 5337 5340 5337 5333 5336 5331 5320 5325 5325 5322 5327 5331 5331 5325 5324 5324 5331 5348 5345 5343 5337 5331 5320 5316 5319 5322 5321 5324 5327 5332 5337 5354 5371 5382 5393 5405 5409 5411 5415 5418 5421 5422 5418 5417 5416 5413 5410 5409 5403 5399 5394 5386 5379
5339 5331 5325 5318 5305 5323 5315 5315 5302 5319 5315 5297 5322 5318 5314 5313 5323 5316 5328 5330 5317 5319 5312 5301 5296 5292 5291 5297 5297 5301 5304 5311 5326 5342 5361 5373 5385 5392 5395 5399 5404 5406 5408 5409 5407 5406 5402 5399 5396 5395 5389 5383 5377 5369
5332 5318 5324 5333 5316 5323 5322 5317 5304 5314 5298 5300 5301 5294 5285 5303 5299 5310 5315 5319 5312 5302 5293 5286 5279 5275 5275 5272 5276 5280 5284 5291 5300 5320 5338 5353 5366 5378 5385 5386 5388 5390 5396 5401 5401 5398 5395 5390 5386 5383 5378 5373 5370 5362
5327 5324 5323 5326 5324 5318 5316 5311 5310 5303 5292 5295 5295 5287 5285 5278 5287 5307 5309 5297 5293 5282 5272 5265 5258 5253 5255 5256 5258 5263 5268 5274 5284 5301 5316 5331 5349 5362 5374 5380 5382 5387 5388 5389 5391 5389 5387 5381 5374 5372 5369 5363 5357 5355
5334 5330 5326 5315 5306 5300 5304 5296 5296 5299 5303 5298 5295 5278 5284 5289 5306 5306 5296 5283 5273 5261 5253 5247 5244 5243 5242 5245 5248 5251 5258 5265 5275 5287 5303 5319 5334 5348 5359 5368 5373 5378 5380 5380 5379 5375 5371 5371 5365 5359 5354 5350 5344 5339
5323 5313 5310 5288 5282 5291 5296 5305 5306 5306 5309 5298 5298 5292 5291 5291 5288 5283 5276 5264 5251 5245 5242 5242 5243 5238 5237 5240 5242 5247 5251 5256 5265 5278 5296 5313 5321 5333 5345 5357 5363 5364 5366 5367 5365 5364 5360 5358 5353 5348 5341 5335 5329 5325
5313 5307 5299 5287 5297 5302 5302 5291 5288 5280 5286 5288 5284 5281 5279 5278 5274 5263 5258 5249 5245 5242 5236 5230 5228 5224 5226 5231 5237 5245 5248 5253 5260 5269 5287 5303 5313 5321 5332 5340 5348 5349 5352 5355 5353 5349 5345 5339 5333 5328 5323 5317 5313 5309
5298 5290 5286 5287 5288 5271 5266 5264 5266 5282 5263 5259 5251 5261 5265 5259 5263 5255 5246 5241 5235 5227 5225 5227 5225 5223 5223 5226 5229 5237 5247 5254 5259 5266 5277 5288 5299 5309 5318 5325 5332 5335 5339 5340 5338 5333 5330 5325 5320 5314 5308 5304 5302 5298
5290 5288 5287 5283 5272 5257 5253 5251 5248 5251 5243 5245 5248 5233 5240 5243 5247 5252 5241 5232 5229 5227 5228 5225 5223 5226 5226 5229 5233 5236 5246 5250 5258 5267 5277 5286 5295 5303 5307 5312 5318 5322 5322 5323 5320 5318 5316 5312 5305 5300 5296 5291 5286 5286
5266 5261 5252 5255 5247 5247 5245 5246 5242 5238 5234 5230 5236 5230 5226 5233 5245 5243 5233 5227 5225 5224 5222 5223 5226 5229 5232 5233 5234 5237 5241 5246 5253 5261 5270 5279 5288 5293 5295 5298 5304 5303 5303 5305 5303 5301 5297 5293 5289 5285 5281 5277 5276 5274